Content
SEND FEEDBACK

Daily
Averages
Monthly
Summary
United States of America

HICKORY CORNERS, MICHIGAN


Home > North America > United States > Michigan
Elevation: 909 feet     Latitude: 42 24N     Longitude: 085 24W

WEATHER
 
SELECT A DAY
Number of Records: 208,156;   Date Range: 1/1/95 - 9/30/14
 
SHARE

PRINT THIS DATA

[ ← Previous Day ]
WEATHER ALMANAC - JANUARY 31, 2013
[ Next Day → ]
[ °C ]   °F
Weather ElementAverageHighLow
Temperature18.7 °F26.1 °F (12:53 am)15.1 °F (8:53 pm)
Dewpoint12.5 °F19.4 °F (2:02 am)8.1 °F (2:53 pm)
Humidity77 %86 % (3:32 am)60 % (2:53 pm)
Barometer29.73 in29.96 in (11:53 pm)29.42 in (12:53 am)
Wind Speed15.8 mph25.3 mph (4:09 am)
Wind Gust33.4 mph (4:09 am)
Weather ElementAverage
Visibility3.2 mi
Wind DirectionW (271.6 °)

Weather ElementTotal
Precipitation0.01 in
Heating Degree Days44.4 (Base 65)
Averaged from 70 records on January 31, 2013
WEATHER CONDITIONS BREAKOUT
WIND DIRECTION BREAKOUT
WEATHER BY HOUR - JANUARY 31, 2013
[ °C ]   °F
Local TimeTemperatureDewpointHumidityBarometerVisibilityWind DirectionWind SpeedGust SpeedPrecipitationEventsConditions
12:53 AM26.1 °F19.0 °F75 %29.42 in7.0 miWNW (290°)21.9 mph27.6 mph0.00 inSnowLight Snow
1:53 AM25.0 °F19.0 °F78 %29.45 in3.0 miWest (280°)16.1 mph23.0 mph0.00 inSnowLight Snow
2:02 AM24.8 °F19.4 °F80 %29.44 in2.0 miWest (280°)19.6 mph25.3 mph0.00 inSnowLight Snow
2:16 AM24.8 °F17.6 °F74 %29.45 in7.0 miWest (270°)23.0 mph31.1 mph0.00 inSnowLight Snow
2:53 AM24.1 °F15.1 °F69 %29.50 in9.0 miWNW (300°)23.0 mph32.2 mph0.00 inSnowLight Snow
3:18 AM23.0 °F17.6 °F80 %29.49 in1.8 miWNW (290°)20.7 mph24.2 mph0.00 inSnowLight Snow
3:32 AM21.2 °F17.6 °F86 %29.49 in1.0 miWNW (290°)15.0 mph23.0 mph0.00 inSnowLight Snow
3:53 AM21.9 °F18.0 °F85 %29.52 in1.0 miWest (280°)15.0 mph23.0 mph0.00 inSnowLight Snow
4:09 AM21.2 °F17.6 °F86 %29.50 in3.0 miWest (270°)25.3 mph33.4 mph0.00 inSnowLight Snow
4:14 AM21.2 °F17.6 °F86 %29.50 in3.0 miWest (280°)16.1 mph33.4 mph0.00 inSnowLight Snow
4:53 AM21.9 °F16.0 °F78 %29.55 in5.0 miWest (270°)19.6 mph27.6 mph0.00 inSnowLight Snow
5:25 AM21.2 °F15.8 °F80 %29.54 in2.0 miWest (260°)15.0 mph24.2 mph0.00 inSnowLight Snow
5:33 AM21.2 °F15.8 °F80 %29.54 in1.8 miWest (270°)16.1 mph24.2 mph0.00 inSnowLight Snow
5:53 AM21.0 °F16.0 °F81 %29.58 in2.5 miWest (270°)13.8 mph0.00 inSnowLight Snow
6:11 AM21.2 °F15.8 °F80 %29.56 in1.5 miWest (280°)19.6 mph26.5 mph0.00 inSnowLight Snow
6:26 AM19.4 °F15.8 °F86 %29.57 in2.0 miWest (270°)12.7 mph0.00 inSnowLight Snow
6:34 AM21.2 °F15.8 °F80 %29.57 in5.0 miWest (270°)13.8 mph23.0 mph0.00 inSnowLight Snow
6:53 AM19.9 °F15.1 °F81 %29.61 in3.0 miWest (260°)15.0 mph29.9 mph0.00 inSnowLight Snow
7:16 AM19.4 °F12.2 °F74 %29.58 in9.0 miWest (270°)20.7 mph33.4 mph0.00 inSnowLight Snow
7:53 AM19.9 °F12.9 °F74 %29.63 in9.0 miWest (270°)18.4 mph24.2 mph0.00 inSnowLight Snow
8:53 AM19.0 °F12.9 °F77 %29.67 in3.0 miWest (260°)17.3 mph24.2 mph0.00 inSnowLight Snow
9:07 AM19.4 °F12.2 °F74 %29.64 in4.0 miWest (270°)19.6 mph26.5 mph0.00 inSnowLight Snow
9:53 AM19.0 °F10.0 °F68 %29.71 in8.0 miWest (280°)20.7 mph32.2 mph0.00 inSnowLight Snow
10:01 AM19.4 °F10.4 °F68 %29.67 in8.0 miWest (270°)20.7 mph33.4 mph0.00 inSnowLight Snow
10:23 AM19.4 °F12.2 °F74 %29.68 in3.0 miWest (270°)20.7 mph29.9 mph0.00 inSnowLight Snow
10:39 AM19.4 °F12.2 °F74 %29.69 in1.8 miWest (260°)18.4 mph27.6 mph0.00 inSnowLight Snow
10:53 AM19.0 °F12.9 °F77 %29.73 in1.2 miWest (270°)18.4 mph24.2 mph0.00 inSnowLight Snow
10:59 AM19.4 °F12.2 °F74 %29.69 in0.8 miWest (260°)18.4 mph0.00 inSnowLight Snow
11:41 AM19.4 °F14.0 °F80 %29.71 in1.2 miWest (270°)12.7 mph0.00 inSnowLight Snow
11:49 AM19.4 °F12.2 °F74 %29.71 in2.0 miWest (260°)20.7 mph28.8 mph0.00 inSnowLight Snow
11:53 AM19.9 °F12.0 °F71 %29.75 in3.0 miWest (280°)16.1 mph28.8 mph0.00 inSnowLight Snow
12:11 PM19.4 °F12.2 °F74 %29.71 in4.0 miWest (270°)23.0 mph27.6 mph0.00 inSnowLight Snow
12:38 PM19.4 °F12.2 °F74 %29.71 in1.8 miWest (270°)23.0 mph29.9 mph0.00 inSnowLight Snow
12:50 PM19.4 °F12.2 °F74 %29.71 in0.8 miWest (260°)18.4 mph26.5 mph0.00 inSnowLight Snow
12:53 PM19.0 °F12.9 °F77 %29.76 in0.5 miWest (260°)18.4 mph26.5 mph0.00 inSnowLight Snow
1:13 PM19.4 °F12.2 °F74 %29.72 in1.8 miWest (270°)24.2 mph29.9 mph0.00 inSnowLight Snow
1:20 PM19.4 °F12.2 °F74 %29.72 in2.5 miWest (260°)18.4 mph29.9 mph0.00 inSnowLight Snow
1:28 PM19.4 °F10.4 °F68 %29.72 in5.0 miWest (260°)23.0 mph31.1 mph0.00 inSnowLight Snow
1:53 PM19.9 °F10.0 °F65 %29.77 in8.0 miWest (270°)19.6 mph29.9 mph0.00 inSnowLight Snow
2:53 PM19.9 °F8.1 °F60 %29.79 in9.0 miWest (270°)17.3 mph25.3 mph0.00 inSnowLight Snow
3:53 PM19.0 °F8.1 °F62 %29.81 in9.0 miWest (270°)18.4 mph29.9 mph0.00 inSnowLight Snow
4:53 PM18.0 °F10.0 °F71 %29.82 in3.0 miWest (280°)13.8 mph0.00 inSnowLight Snow
5:42 PM17.6 °F8.6 °F68 %29.79 in9.0 miWest (270°)13.8 mph0.00 inSnowLight Snow
5:53 PM17.1 °F9.0 °F71 %29.84 in9.0 miWest (270°)15.0 mph20.7 mph0.00 inSnowLight Snow
6:44 PM17.6 °F10.4 °F73 %29.82 in3.0 miWest (270°)11.5 mph0.00 inSnowLight Snow
6:53 PM16.0 °F10.9 °F81 %29.87 in2.5 miWest (270°)10.4 mph0.00 inSnowLight Snow
7:06 PM15.8 °F10.4 °F79 %29.83 in1.2 miWest (280°)8.1 mph0.00 inSnowLight Snow
7:18 PM15.8 °F12.2 °F86 %29.83 in0.8 miWNW (290°)11.5 mph0.00 inSnowLight Snow
7:32 PM15.8 °F12.2 °F86 %29.84 in0.8 miWNW (290°)9.2 mph0.00 inSnowLight Snow
7:53 PM16.0 °F12.0 °F84 %29.90 in0.8 miWNW (290°)8.1 mph0.00 inSnowLight Snow
8:17 PM15.8 °F10.4 °F79 %29.86 in1.5 miWest (270°)16.1 mph0.00 inSnowLight Snow
8:22 PM15.8 °F10.4 °F79 %29.86 in2.0 miWest (270°)12.7 mph0.00 inSnowLight Snow
8:31 PM15.8 °F10.4 °F79 %29.86 in1.8 miWest (270°)12.7 mph0.00 inSnowLight Snow
8:42 PM15.8 °F10.4 °F79 %29.86 in3.0 miWest (270°)11.5 mph0.00 inSnowLight Snow
8:53 PM15.1 °F10.0 °F80 %29.91 in3.0 miWest (280°)11.5 mph0.00 inSnowLight Snow
9:10 PM15.8 °F10.4 °F79 %29.87 in2.0 miWest (260°)11.5 mph0.00 inSnowLight Snow
9:20 PM15.8 °F10.4 °F79 %29.87 in1.0 miWest (270°)10.4 mph0.00 inSnowLight Snow
9:29 PM15.8 °F10.4 °F79 %29.87 in0.5 miWest (270°)10.4 mph0.00 inFog-SnowSnow
9:37 PM15.8 °F10.4 °F79 %29.87 in0.5 miWest (270°)9.2 mph0.00 inFog-SnowSnow
9:53 PM15.1 °F10.9 °F84 %29.93 in1.0 miWest (270°)13.8 mph0.01 inSnowLight Snow
10:08 PM15.8 °F10.4 °F79 %29.88 in1.8 miWest (260°)11.5 mph0.00 inSnowLight Snow
10:12 PM15.8 °F10.4 °F79 %29.88 in2.0 miWest (260°)10.4 mph0.00 inSnowLight Snow
10:23 PM15.8 °F10.4 °F79 %29.88 in4.0 miWest (260°)10.4 mph0.00 inSnowLight Snow
10:37 PM15.8 °F10.4 °F79 %29.89 in2.0 miWest (270°)12.7 mph0.00 inSnowLight Snow
10:49 PM15.8 °F10.4 °F79 %29.89 in1.2 miWest (270°)13.8 mph0.00 inSnowLight Snow
10:53 PM15.1 °F10.0 °F80 %29.94 in1.2 miWest (270°)12.7 mph0.00 inSnowLight Snow
11:17 PM15.8 °F10.4 °F79 %29.90 in1.0 miWest (270°)11.5 mph0.00 inSnowLight Snow
11:35 PM15.8 °F10.4 °F79 %29.90 in2.0 miWest (270°)12.7 mph0.00 inSnowLight Snow
11:42 PM15.8 °F10.4 °F79 %29.90 in2.0 miWest (270°)11.5 mph0.00 inSnowLight Snow
11:53 PM15.1 °F10.0 °F80 %29.96 in1.8 miWest (270°)11.5 mph0.00 inSnowLight Snow
Hourly data recorded from KBTL, located miles away from Hickory Corners, Michigan







STORIES FROM OUR PARTNERS